Regional Weather Roundup
Issued by NWS

Home | Current Version | Previous Version | Graphics & Text | Print | Product List | Glossary On
Versions: 1 2 3 4 5 6 7 8 9 10 11 12 13 14 15 16 17 18 19 20 21 22 23 24 25 26 27 28 29 30 31 32 33 34 35 36 37 38 39 40 41 42 43 44 45 46 47 48 49 50
546
ASUS43 KIND 121059
RWRIN

WEATHER ROUNDUP FOR INDIANA
NATIONAL WEATHER SERVICE INDIANAPOLIS IN
600 AM EST FRI FEB 12 2016

NOTE: "FAIR" INDICATES FEW OR NO CLOUDS BELOW 12,000 FEET WITH NO
SIGNIFICANT WEATHER AND/OR OBSTRUCTIONS TO VISIBILITY.

* - STATION DOES NOT REPORT WEATHER SUCH AS PRECIPITATION OR FOG.

+ - STATION NOT QUALITY CONTROLLED BY THE NATIONAL WEATHER SERVICE.
    USE DATA WITH CAUTION...ESPECIALLY DEWPOINT AND RELATIVE
    HUMIDITY OBSERVATIONS.

INZ001>003-010>013-019-020-121200-
NORTHWEST INDIANA

CITY           SKY/WX    TMP DP  RH WIND       PRES   REMARKS
GARY /AIRPORT/ CLOUDY    19  10  68 CALM      30.17F
MONTICELLO +   CLOUDY    17  10  75 SW3       30.18S
RENSSELAER +   CLOUDY    21   9  58 SW6       30.18S WCI  14

$$

LMZ046-743>745-121200-
SOUTHERN LAKE MICHIGAN

STATION/POSITION TIME  TEMP    WIND        PRES    WAVE
                       AIR SEA DIR/SP/G            HT
                 (UTC) (F)     (DEG/KT/KT) (MB)    (FT)
BURNS HARBOR     1000   20     220/  9/ 13 1022.0F
MICHIGAN CITY    1000   19     190/ 12/ 13   N/A

$$

INZ004-005-014>016-021>024-121200-
NORTH CENTRAL INDIANA

CITY           SKY/WX    TMP DP  RH WIND       PRES   REMARKS
GOSHEN         CLOUDY    17   8  67 SW8       30.14F WCI   7
SOUTH BEND     CLOUDY    15   8  73 SW9       30.14F WCI   3

$$

INZ006>009-017-018-025>027-121200-
NORTHEAST INDIANA

CITY           SKY/WX    TMP DP  RH WIND       PRES   REMARKS
ANGOLA *+      CLOUDY    12  10  92 SW3       30.11S
FORT WAYNE     CLOUDY    17   8  67 SW8       30.17S WCI   7

$$

INZ028-029-035-036-043>045-051>053-121200-
WEST CENTRAL INDIANA

CITY           SKY/WX    TMP DP  RH WIND       PRES   REMARKS
GREENCASTLE +  CLOUDY    21  10  63 CALM      30.19S
LAFAYETTE      CLOUDY    19  13  77 CALM      30.19F
TERRE HAUTE    CLOUDY    22  13  68 CALM      30.20F

$$

INZ030>032-037>040-046>048-054>057-064-065-121200-
CENTRAL INDIANA

CITY           SKY/WX    TMP DP  RH WIND       PRES   REMARKS
FRANKFORT +    CLOUDY    19   8  61 CALM      30.19S
GREENWOOD *+   CLOUDY    21  12  68 CALM      30.19S
INDIANAPOLIS   CLOUDY    20   8  60 SE3       30.17F
-EAGLE CREEK   CLOUDY    21  11  65 CALM      30.17F
KOKOMO *+      CLOUDY    18   9  68 SW3       30.18R
MT COMFORT *+  CLOUDY    19  10  68 CALM      30.18F
SHELBYVILLE    CLOUDY    19  11  70 SE3       30.18F

$$

INZ033-034-041-042-049-050-058-059-121200-
EAST CENTRAL INDIANA

CITY           SKY/WX    TMP DP  RH WIND       PRES   REMARKS
MUNCIE         CLOUDY    19   8  62 SW5       30.16F WCI  12

$$

INZ060-061-067>069-081>083-085>088-121200-
SOUTHWEST INDIANA

CITY           SKY/WX    TMP DP  RH WIND       PRES   REMARKS
EVANSVILLE     CLOUDY    29  14  53 CALM      30.21F
HUNTINGBURG *+ CLOUDY    27  14  59 NE3       30.20F

$$

INZ062-063-066-070>080-084-089>092-121200-
SOUTH CENTRAL AND SOUTHEAST INDIANA

CITY           SKY/WX    TMP DP  RH WIND       PRES   REMARKS
BLOOMINGTON    CLOUDY    22  11  62 CALM      30.18R
MADISON *+     PTCLDY    23  10  58 CALM      30.21S
SEYMOUR +      CLOUDY    23  10  58 CALM      30.21S

$$





USA.gov is the U.S. government's official web portal to all federal, state and local government web resources and services.